Location: Pian di Sc�
(43.6333°N, 11.5500°E)
Time: 13:32:18
(UTC+00:00)

Cosmos 2297 Rocket - Pass Details

Date: 07 August 2020
Orbit: 838 x 845 km, 71.0° (Epoch: 25 September)

Event Time Altitude Azimuth Distance (km) Brightness Sun altitude
Exits shadow 02:27:47 14° 272° (W) 2,156 3.9 -16.2°
Maximum altitude 02:30:50 22° 311° (NW) 1,782 3.8 -15.8°
Drops below altitude 10° 02:35:07 10° 1° (N) 2,466 5.2 -15.2°
Sets 02:38:10 0° 16° (NNE) 3,405 6.4 -14.8°
